Vorticity
nan nan nan nan nan nan nan nan nan nan nan nan nan nan nan nan nan nan nan nan nan nan nan nan nan nan nan nan nan nan nan nan nan nan nan nan nan nan nan nan nan nan nan
nan 9 8 8 10 9 9 6 9 11 8 9 10 8 8 10 10 8 7 7 6 5 9 10 8 10 11 5 6 7 8 10 11 10 10 5 12 11 9 9 8 7 nan
nan 8 9 9 6 7 9 9 9 10 9 8 8 9 10 9 8 7 9 8 8 9 10 9 10 10 6 5 7 12 13 11 11 5 8 12 11 10 8 9 13 5 nan
nan 8 10 9 9 9 7 10 9 6 9 10 9 8 9 11 9 12 12 9 8 8 9 10 9 10 16 13 7 9 8 8 10 10 8 11 11 12 10 10 7 7 nan
nan 9 9 10 9 9 9 9 9 9 10 9 9 10 10 9 16 15 9 10 10 8 9 13 7 7 13 17 16 12 11 10 9 8 8 8 9 11 12 9 11 10 nan
nan 8 9 10 9 9 9 10 12 10 8 10 9 8 7 5 17 15 14 10 8 9 11 10 12 11 1 4 12 13 18 19 11 8 8 7 9 8 13 12 11 9 nan
nan 12 12 9 9 11 10 10 10 9 8 9 10 11 9 11 8 7 14 10 9 11 10 9 9 6 9 5 8 9 8 12 12 15 16 14 12 7 10 11 13 11 nan
nan 11 12 13 11 11 10 11 12 11 10 10 12 9 8 16 11 9 7 11 10 8 11 15 14 11 11 14 9 4 3 7 17 21 16 17 16 17 17 9 11 10 nan
nan 10 12 15 7 10 13 11 14 14 12 9 9 14 18 17 9 6 7 13 12 12 11 10 22 23 12 14 11 8 6 5 11 16 13 6 4 10 20 23 15 8 nan
nan 9 12 13 11 10 11 12 14 17 14 13 14 12 14 11 8 9 9 10 13 14 12 5 9 20 19 14 15 13 9 8 8 4 6 3 5 3 7 16 13 14 nan
nan 11 10 11 13 11 15 17 15 16 17 13 11 7 7 9 9 12 19 15 13 14 14 10 -0 10 17 16 25 21 15 9 4 9 9 11 9 6 7 10 12 14 nan
nan 11 9 10 13 14 14 12 13 12 11 16 14 9 10 9 9 13 17 18 17 16 12 14 10 9 11 14 17 13 13 13 11 10 9 11 9 10 10 8 9 10 nan
nan 16 12 12 12 14 11 9 10 11 10 11 9 10 9 10 10 11 11 10 15 13 15 13 11 10 10 7 9 8 7 9 10 10 9 7 8 10 8 10 8 7 nan
nan 10 10 10 10 9 10 11 11 9 8 11 12 11 9 11 10 6 8 8 8 11 10 6 7 7 7 8 6 7 8 10 10 10 10 9 10 9 9 10 10 11 nan
nan 10 10 9 9 7 8 14 15 11 15 15 11 10 12 12 7 18 18 12 9 9 6 7 6 7 7 8 10 11 10 11 11 9 9 11 11 11 9 8 10 11 nan
nan 10 10 11 10 10 8 4 7 13 14 13 13 14 14 13 13 14 15 15 10 10 12 11 10 10 9 8 8 9 11 12 11 12 12 9 10 12 11 10 8 9 nan
nan 9 11 10 9 10 11 9 4 4 5 7 9 10 17 13 10 13 12 4 3 9 9 10 11 9 10 12 12 12 8 5 8 16 13 11 12 11 10 10 12 13 nan
nan 11 11 8 12 14 10 9 9 10 7 4 6 11 12 11 12 12 5 1 5 9 12 11 9 9 9 8 10 11 11 10 11 10 9 13 13 10 10 11 13 11 nan
nan 9 11 12 10 11 10 8 9 9 10 11 10 9 9 10 12 12 4 4 11 10 11 10 11 12 12 10 10 9 9 10 11 10 11 10 9 9 10 9 8 10 nan
nan 12 11 8 11 11 11 11 11 11 10 9 9 13 11 7 10 10 9 9 10 12 12 11 11 10 12 11 9 11 11 9 9 10 11 10 10 11 12 10 10 10 nan
nan 4 10 14 12 10 9 9 9 11 10 12 12 12 13 11 9 9 12 12 9 10 12 12 12 11 11 10 10 10 11 10 10 11 11 10 10 11 10 12 10 9 nan
nan 10 10 9 8 11 11 9 11 11 10 9 9 7 9 11 10 15 11 10 12 12 13 12 10 10 11 11 10 10 11 11 11 11 10 11 9 10 11 10 10 10 nan
nan 10 8 9 10 12 10 10 10 10 9 10 10 11 10 11 12 11 11 12 11 11 10 11 10 10 11 11 11 10 11 11 11 11 10 10 10 12 9 10 11 11 nan
nan 11 11 13 10 8 10 10 7 6 13 15 11 9 10 10 10 9 12 13 11 10 11 10 11 11 9 9 9 11 13 17 12 12 11 9 8 11 9 11 9 8 nan
nan 14 9 11 12 10 8 11 12 11 12 9 10 12 11 10 10 11 11 10 11 11 10 9 12 12 10 9 10 12 15 16 10 11 11 10 12 10 9 10 9 9 nan
nan nan nan nan nan nan nan nan nan nan nan nan nan nan nan nan nan nan nan nan nan nan nan nan nan nan nan nan nan nan nan nan nan nan nan nan nan nan nan nan nan nan nan
CAPE
834 1114 1260 1040 1262 1948 1468 1371 1618 1595 1556 1513 1676 1766 1586 1731 1980 1925 2862 2282 2057 1972 2025 2155 1921 2292 1306 950 830 411 248 231 255 228 493 2612 1900 1652 1543 545 0 0 0
858 1277 886 965 1046 1141 1692 1367 2540 1642 1628 1680 1826 1877 1726 1539 1750 2102 1840 1590 1974 1567 1613 2042 1595 1072 3154 3126 708 2180 914 1776 1112 2638 1641 1281 1576 1772 1364 2311 167 0 0
933 922 839 894 924 1080 1892 1416 2165 2564 2262 1232 1683 1831 1735 1684 1925 1916 2070 1767 1989 1915 1590 2325 1541 1922 2789 1661 2351 1915 1605 1329 2228 940 1191 1453 1507 1665 1968 1417 786 0 0
1347 845 1456 1146 1042 941 1450 1648 1537 2243 2091 1963 1924 2395 2427 1849 1727 1672 2188 2382 2188 1482 1649 1896 2025 1487 2262 2442 2171 2645 2151 1898 1226 2036 1462 2624 692 1397 2122 2394 561 295 0
1785 1902 2189 2652 2340 2343 2579 2501 2025 2184 2117 2039 2055 2450 2487 1987 1583 2409 2044 1983 2404 1713 2045 1835 1612 1322 109 708 2105 2755 2677 2804 2508 1856 1941 1334 1187 2089 1004 1881 1622 107 229
1606 1772 1902 1728 2145 2380 2417 2507 2660 2293 2396 2291 1947 2052 1782 1504 165 443 757 1826 2466 2446 1610 1962 2353 227 65 0 0 0 17 2582 2439 744 396 857 1171 582 650 905 1177 1075 122
1159 1367 1639 1810 2076 2014 2330 2650 2567 2301 2518 2416 1835 1698 2119 2244 49 0 76 843 941 1535 1844 2385 1868 2037 833 1199 0 0 0 0 0 1281 2002 771 909 798 1139 804 714 851 123
968 1145 956 1421 1615 1765 1840 1854 2551 2919 2994 1278 2342 2048 2255 1493 0 0 0 576 1165 1363 1408 1390 1676 1630 1194 924 388 317 0 0 0 2 195 74 175 83 503 358 320 34 0
271 922 626 1393 1047 1211 1900 1941 1709 2603 2422 1693 1436 1416 1602 1315 0 0 0 340 655 1244 1076 780 312 1203 78 0 582 19 0 0 0 0 0 0 0 0 0 2 119 63 130
183 572 542 714 958 837 733 938 1285 1798 1877 1455 911 898 2 18 1 1 0 75 455 1077 298 173 0 0 0 0 105 0 0 0 0 0 0 0 0 0 0 0 0 0 0
181 173 220 420 335 444 524 504 545 447 345 281 24 4 2 0 1 0 0 11 115 485 138 10 0 0 0 0 0 1 0 0 0 0 0 0 0 0 0 0 0 0 0
135 199 101 169 147 53 3 2 1 0 0 3 2 5 5 6 1 0 0 0 0 0 1 2 1 0 0 0 0 0 0 0 0 0 0 0 0 0 0 0 0 0 0
104 43 25 21 39 8 4 6 7 6 4 4 2 2 2 3 2 0 0 0 0 2 2 1 0 0 0 0 0 0 0 0 0 2 0 0 0 0 0 0 0 0 0
72 39 60 21 9 9 7 7 4 6 5 4 8 10 10 5 3 3 2 2 1 2 4 4 2 1 0 1 1 0 1 0 2 0 0 0 0 0 0 0 0 0 0
8 8 10 9 5 0 3 3 5 2 0 1 1 1 3 8 0 0 2 3 7 2 2 3 2 5 5 5 1 0 0 0 0 0 0 0 0 0 0 0 0 0 0
4 4 5 3 3 7 4 2 0 0 0 0 0 0 0 0 0 0 0 0 0 0 0 0 0 0 0 0 0 0 0 0 0 0 0 0 0 0 0 0 0 0 0
7 8 5 1 3 5 5 0 0 0 0 0 0 0 0 0 0 0 0 0 0 0 2 3 1 0 0 0 0 0 0 0 0 0 0 0 0 0 0 0 0 0 0
0 0 0 0 0 4 5 1 0 0 0 0 0 0 0 0 0 1 0 0 0 0 1 0 0 0 0 0 0 0 0 0 0 0 0 0 0 0 0 0 0 0 0
0 0 0 0 0 0 1 6 6 6 3 0 0 0 0 0 0 0 0 0 0 0 0 0 0 0 0 0 0 0 0 0 0 0 0 0 0 0 0 0 0 0 0
0 0 0 0 0 0 0 0 6 13 16 9 0 0 0 0 0 0 0 0 3 0 0 0 0 0 0 0 0 0 0 0 0 0 0 0 0 0 0 0 0 0 0
0 0 0 0 0 0 0 0 0 0 0 0 0 0 0 0 0 0 0 0 0 0 0 0 0 0 0 0 0 0 0 0 0 0 0 0 0 0 0 0 0 0 0
0 0 0 1 4 0 0 0 0 0 0 0 0 0 0 0 0 0 0 0 0 1 1 0 0 0 0 0 0 0 0 0 0 0 0 0 0 0 0 0 0 0 0
8 5 0 0 0 0 0 0 0 0 0 0 0 0 0 0 0 0 0 0 0 0 0 0 0 0 0 0 0 0 0 0 0 0 0 0 0 0 0 0 0 0 0
38 5 0 0 0 0 0 0 0 0 0 0 0 0 0 0 0 0 0 0 0 0 0 0 0 0 0 0 0 0 0 0 0 0 0 0 0 0 0 0 0 0 0
20 32 5 0 0 0 0 0 0 0 0 0 0 0 0 0 0 0 0 0 0 1 0 0 0 0 0 0 0 0 0 0 0 0 0 0 0 0 0 0 2 5 2
53 49 41 29 8 1 0 0 0 0 0 0 0 0 0 0 2 2 4 5 8 8 5 8 7 1 1 0 0 0 0 0 0 0 0 0 1 3 6 16 13 14 13